Location: Mahannah Oil Field
(37.4664°N, 96.6003°W)
Time: 06:18:47
(UTC+00:00)

Tiros 1 despin weight - Pass Details

Date: 30 January 2021
Orbit: 593 x 642 km, 48.2° (Epoch: 04 March)

Event Time Altitude Azimuth Distance (km) Brightness Sun altitude
Rises 02:27:43 0° 282° (WNW) 2,839 ? -31.9°
Reaches altitude 10° 02:32:19 10° 238° (WSW) 1,920 ? -32.8°
Maximum altitude 02:32:49 10° 232° (SW) 1,908 ? -32.9°
Drops below altitude 10° 02:33:18 10° 225° (SW) 1,918 ? -33.0°
Enters shadow 02:34:15 - 213° (SSW) 1,993 ? -33.1°
